Location: ?????????
(41.2393°N, 22.9479°E)
Time: 23:20:19
(UTC+00:00)

CZ-2D R/B - Pass Details

Date: 17 November 2025
Orbit: 404 x 412 km, 97.4° (Epoch: 09 December)

Event Time Altitude Azimuth Distance (km) Brightness Sun altitude
Rises 15:34:32 0° 147° (SSE) 2,331 6.4 -5.6°
Reaches altitude 10° 15:36:38 10° 137° (SE) 1,472 5.3 -5.9°
Maximum altitude 15:39:27 31° 73° (ENE) 739 3.5 -6.4°
Drops below altitude 10° 15:42:18 10° 8° (N) 1,477 5.2 -6.9°
Sets 15:44:24 0° 358° (N) 2,341 6.4 -7.3°
